Location: Pine Gate Village
(41.1694°N, 81.2617°W)
Time: 12:37:45
(UTC+00:00)

Daily predictions for brighter satellites

Satellite Brightness Start Highest point End
(mag) Time Altitude Azimuth Time Altitude Azimuth Time Altitude Azimuth
Meteor 1-27 Rocket 4.5 12:01:27 10° N 12:07:13 58° ENE 12:12:48 10° SSE
Cosmos 2266 Rocket 4.0 12:00:53 10° SSW 12:07:14 71° W 12:13:34 10° N
Cosmos 2221 2.5 12:04:04 10° NNW 12:08:06 55° W 12:12:09 10° S
Meteor 1-20 Rocket 4.2 12:04:26 10° SSW 12:10:06 76° W 12:15:41 10° N
Cosmos 1825 Rocket 3.6 12:06:55 10° S 12:11:20 89° ESE 12:15:46 10° N
Cosmos 2279 Rocket 4.1 22:16:19 10° S 22:22:31 85° W 22:28:47 10° N
ARIANE 5 R/B 3.1 22:19:26 10° SE 22:23:58 34° ENE 22:28:34 10° N
Meteor 1-28 Rocket 3.1 22:27:10 10° N 22:30:31 75° WNW 22:33:48 10° SSW
UNK 3.8 22:26:54 10° NNE 22:31:26 61° E 22:35:55 10° S
ATLAS CENTAUR R/B 1.7 22:33:25 10° NW 22:36:31 49° WSW 22:39:30 10° SSE
SMAP 3.1 22:32:55 10° SSE 22:37:29 59° ENE 22:42:04 10° N
Cosmos 2208 Rocket 4.4 22:33:05 10° NNW 22:38:14 70° WSW 22:43:23 10° S
Cosmos 1607 3.9 22:32:04 10° NNW 22:38:20 76° ENE 22:44:39 10° SE
COSMO-SKYMED 1 4.3 22:38:16 10° ENE 22:40:09 13° E 22:42:00 10° ESE
BlueWalker 3 3.2 22:36:52 10° WNW 22:40:18 41° SW 22:43:44 10° SSE
Gbstr 26 Del rocket 3.0 22:37:53 10° WSW 22:42:07 64° NNW 22:45:43 11° NE
Landsat 7 3.9 22:37:45 10° SSE 22:42:14 50° ENE 22:46:44 10° N
CBERS-1 4.4 22:38:04 10° S 22:43:09 70° WSW 22:48:16 10° NNW
Cosmos 1484 Rocket 3.8 22:41:30 10° S 22:44:53 45° W 22:48:16 10° NNW
USA 290 2.7 22:42:43 10° NNW 22:45:57 66° WSW 22:49:09 10° S
Cosmos 1606 Rocket 3.6 22:45:01 10° S 22:49:20 62° E 22:53:43 10° NNE
Meteor 1-20 Rocket 4.1 22:44:07 10° N 22:49:36 80° E 22:55:04 10° SSE
IRS-P3 4.4 22:46:12 10° SE 22:51:11 43° ENE 22:56:12 10° N
Cosmos 783 Rocket 4.5 22:46:24 10° NNW 22:51:42 69° ENE 22:56:57 10° SSE
Cosmos 724 4.4 22:46:24 10° NNW 22:52:26 83° WSW 22:58:17 10° SSE
CZ-2D R/B 2.7 22:54:02 10° SSE 22:57:06 57° ENE 23:00:12 10° N
NOSS 3-2 (C) 4.0 22:54:17 10° WSW 22:59:03 45° NW 23:04:42 10° NNE
Cosmos 2297 Rocket 2.8 22:53:54 10° NNW 22:59:30 63° WSW 23:05:04 10° S
AQUARIUS 4.1 22:57:17 10° SSE 23:01:35 57° ENE 23:05:56 10° N
Cosmos 2266 Rocket 4.0 22:56:25 10° N 23:02:34 87° W 23:08:36 10° S
CZ-4C R/B 3.1 22:56:29 10° NW 23:03:50 85° ENE 23:12:45 10° SE
Thor Agena Rocket 4.2 23:01:15 10° S 23:06:23 61° WSW 23:11:31 10° NNW
Cosmos 1726 Rocket 3.6 23:08:24 10° S 23:13:03 83° E 23:17:40 10° N
Okean 1 4.2 23:10:17 10° SE 23:13:12 24° E 23:13:12 24° E
Cosmos 1933 4.0 23:11:44 10° SSW 23:15:28 53° W 23:19:14 10° N
Cosmos 2219 3.8 23:14:48 10° N 23:19:57 33° ENE 23:24:17 14° ESE
Cosmos 1980 Rocket 2.1 23:14:40 10° SSW 23:20:16 69° ESE 23:25:04 15° NNE
SJ-12 4.1 23:18:48 10° S 23:22:32 65° WSW 23:26:18 10° NNW
Cosmos 1553 Rocket 4.4 23:16:59 10° SSE 23:22:33 38° E 23:28:13 10° NNE
Okean 1-7 Rocket 4.4 23:18:27 10° NNW 23:22:43 53° W 23:26:56 10° S
Cosmos-2242 3.3 23:19:22 10° SSE 23:23:22 43° E 23:25:43 22° NNE
Spot 4 Rocket 4.3 23:18:53 10° SE 23:23:39 41° ENE 23:28:26 10° N
YAOGAN 1 3.0 23:21:19 10° SE 23:25:14 37° ENE 23:29:10 10° N
Cosmos 1898 Rocket 3.6 23:22:50 10° S 23:27:48 52° ESE 23:30:53 22° NE
Meteor 1-5 Rocket 4.1 23:24:35 10° N 23:29:59 88° E 23:35:31 10° S
Meteor 2-20 4.4 23:25:05 10° S 23:31:14 85° E 23:37:26 10° N
SKYMED 2 3.4 23:27:41 12° NNE 23:31:46 77° ESE 23:36:06 10° S
Cosmos 2369 3.9 23:28:20 10° S 23:33:47 49° ESE 23:36:34 27° NE
Cosmos 2263 Rocket 2.2 23:28:28 10° NNW 23:34:07 61° ENE 23:39:43 10° SE
CZ-4 R/B 4.2 23:32:21 10° SSE 23:36:17 82° ENE 23:40:15 10° N
Cosmos 372 Rocket 3.8 23:34:02 10° SSW 23:39:12 84° ESE 23:42:49 20° NNE
NOSS 2-3 (C) 4.2 23:40:28 10° WSW 23:43:42 37° NW 23:45:08 25° N
Helios 1A Rocket 3.5 23:46:12 32° SSE 23:46:12 32° SSE 23:48:19 10° S
Cosmos 1937 Rocket 3.5 23:41:10 10° S 23:46:13 56° ESE 23:47:52 39° NE
Cosmos 1953 Rocket 3.8 23:42:56 10° NNW 23:47:22 71° W 23:51:47 10° S
Cosmos 1244 Rocket 4.4 23:41:51 10° N 23:48:05 63° E 23:54:12 10° SSE
MOS 1 Rocket 4.5 23:46:06 10° S 23:50:46 47° W 23:55:43 10° NNW
Cosmos 2227 Rocket 2.9 23:45:26 10° NNW 23:50:56 56° WSW 23:56:25 10° S
BREEZE-M DEB (TANK) 3.8 23:50:10 10° NW 23:50:43 15° NW 23:50:43 15° NW
Meteor 2-20 Rocket 4.4 23:46:38 10° S 23:52:55 89° E 23:59:00 10° N
NOAA 15 4.5 23:49:00 10° SSE 23:54:18 85° ENE 23:59:36 10° NNW
EXPRESS MD2 3.4 23:52:49 10° WSW 23:55:08 48° NW 23:55:08 48° NW
